Location: Cabrera Baja
(40.4089°N, 4.3354°W)
Time: 03:20:30
(UTC+00:00)

Cosmos 1980 Rocket - Pass Details

Date: 14 July 2020
Orbit: 828 x 851 km, 71.0° (Epoch: 03 August)

Event Time Altitude Azimuth Distance (km) Brightness Sun altitude
Rises 03:24:52 0° 333° (NNW) 3,425 5.6 -15.0°
Reaches altitude 10° 03:27:20 10° 331° (NNW) 2,484 4.9 -14.6°
Maximum altitude 03:32:59 64° 251° (WSW) 934 2.2 -13.9°
Drops below altitude 10° 03:38:33 10° 170° (S) 2,457 4.3 -13.1°
Sets 03:41:00 0° 168° (SSE) 3,385 5.0 -12.8°
